Total_Precipitation_Accumulation
0.32 0.40 0.36 0.43 0.42 0.38 0.33 0.36 0.41 0.44 0.61 0.67 0.56 0.52 0.61 0.61 0.80 0.63 0.33 0.14 0.05 0.02 0.00 0.01 0.03 0.03 0.07 0.04 0.07 0.08 0.14 0.13 0.08 0.12 0.19 0.21 0.17 0.11 0.10 0.11 0.11 0.14 0.18 0.26 0.31 0.37 0.46 0.47 0.52 0.58 0.70 0.71 0.82 1.10 1.35 1.53 1.84 2.15 2.60 2.92 3.37 3.47 4.03 4.32 4.14 4.36 4.01 3.56 3.13 3.27 2.86 2.86 3.36 3.74
0.33 0.35 0.41 0.38 0.39 0.36 0.40 0.49 0.39 0.39 0.58 0.60 0.62 0.63 0.60 0.63 0.89 0.72 0.53 0.29 0.10 0.05 0.01 0.00 0.01 0.01 0.02 0.06 0.08 0.06 0.07 0.18 0.10 0.12 0.13 0.20 0.17 0.14 0.14 0.09 0.10 0.09 0.11 0.15 0.20 0.26 0.34 0.44 0.46 0.48 0.49 0.69 0.71 0.80 1.13 1.36 1.72 2.08 2.37 2.81 2.95 2.92 3.18 3.37 3.75 3.83 3.78 3.74 3.56 2.88 2.73 2.59 3.02 3.46
0.39 0.46 0.42 0.38 0.39 0.36 0.39 0.45 0.45 0.47 0.56 0.57 0.56 0.52 0.53 0.68 0.68 0.79 0.68 0.65 0.22 0.06 0.06 0.03 0.00 0.01 0.02 0.03 0.06 0.10 0.12 0.10 0.07 0.14 0.15 0.18 0.19 0.16 0.14 0.12 0.08 0.08 0.11 0.09 0.12 0.18 0.26 0.38 0.46 0.48 0.47 0.48 0.65 0.68 0.81 1.07 1.27 1.69 2.03 2.38 2.72 2.96 2.76 3.15 3.04 3.33 3.50 3.47 3.53 3.33 2.98 2.69 2.75 2.88
0.32 0.36 0.43 0.42 0.39 0.40 0.48 0.51 0.51 0.52 0.56 0.60 0.70 0.70 0.63 0.61 0.60 0.70 0.91 0.77 0.43 0.09 0.06 0.06 0.05 0.05 0.06 0.11 0.06 0.07 0.09 0.13 0.09 0.12 0.11 0.17 0.18 0.21 0.18 0.12 0.13 0.09 0.06 0.09 0.10 0.11 0.17 0.28 0.41 0.43 0.47 0.45 0.51 0.63 0.72 0.78 0.98 1.36 1.54 2.26 2.48 2.79 2.83 2.72 2.92 3.01 3.17 3.60 3.63 3.58 3.28 2.94 2.84 2.91
0.27 0.36 0.43 0.46 0.41 0.46 0.55 0.57 0.60 0.56 0.59 0.70 0.77 0.79 0.85 0.71 0.60 0.69 0.89 0.80 0.51 0.16 0.16 0.08 0.08 0.11 0.12 0.15 0.11 0.09 0.06 0.13 0.12 0.13 0.09 0.13 0.14 0.21 0.23 0.22 0.16 0.13 0.09 0.06 0.08 0.17 0.17 0.19 0.31 0.41 0.49 0.50 0.50 0.55 0.61 0.67 0.80 1.02 1.13 1.50 2.08 2.40 2.83 2.72 2.61 2.71 3.13 3.17 3.59 3.80 3.88 3.32 2.98 3.11
0.22 0.35 0.32 0.29 0.32 0.38 0.51 0.85 0.68 0.53 0.57 0.63 0.81 0.79 0.85 0.85 0.68 0.55 0.90 0.91 0.75 0.33 0.20 0.10 0.12 0.15 0.15 0.22 0.17 0.10 0.05 0.05 0.08 0.11 0.11 0.10 0.09 0.16 0.13 0.20 0.21 0.19 0.14 0.11 0.09 0.08 0.11 0.21 0.22 0.46 0.40 0.46 0.49 0.50 0.51 0.61 0.64 0.88 0.91 1.14 1.62 2.13 2.55 2.57 2.43 2.59 2.57 2.92 3.30 3.49 3.52 3.40 3.09 2.94
0.27 0.33 0.30 0.29 0.28 0.37 0.45 0.48 0.61 0.69 0.73 0.60 0.74 0.76 0.75 0.77 0.65 0.55 0.69 0.94 0.93 0.59 0.35 0.13 0.18 0.18 0.26 0.22 0.23 0.17 0.10 0.06 0.05 0.11 0.07 0.09 0.09 0.08 0.13 0.17 0.15 0.19 0.19 0.16 0.10 0.08 0.09 0.25 0.20 0.21 0.40 0.47 0.47 0.43 0.46 0.58 0.58 0.66 0.71 0.86 1.19 1.60 2.18 2.59 2.39 2.34 2.39 2.55 2.84 2.93 3.19 3.31 2.94 2.97
0.28 0.31 0.34 0.28 0.32 0.34 0.39 0.40 0.43 0.48 0.62 0.68 0.86 0.72 0.72 0.80 0.78 0.59 0.60 0.76 0.94 0.73 0.45 0.29 0.16 0.20 0.26 0.26 0.25 0.20 0.16 0.15 0.11 0.09 0.08 0.07 0.07 0.07 0.10 0.14 0.12 0.12 0.15 0.18 0.19 0.16 0.10 0.10 0.14 0.19 0.29 0.38 0.46 0.45 0.43 0.44 0.48 0.46 0.57 0.70 0.88 1.27 1.54 2.44 2.54 2.34 2.06 2.17 2.35 2.66 2.69 3.05 3.00 2.67
0.23 0.26 0.29 0.28 0.32 0.33 0.39 0.35 0.40 0.39 0.45 0.54 0.64 0.69 0.65 0.74 0.68 0.72 0.78 0.86 0.90 0.91 0.73 0.51 0.36 0.28 0.27 0.33 0.33 0.26 0.28 0.24 0.21 0.17 0.13 0.11 0.11 0.10 0.08 0.08 0.07 0.06 0.10 0.15 0.18 0.20 0.19 0.12 0.08 0.10 0.15 0.33 0.43 0.45 0.39 0.39 0.41 0.43 0.50 0.48 0.70 0.98 1.16 1.44 2.19 2.48 2.21 1.85 1.92 2.17 2.46 2.60 3.11 2.90
0.26 0.32 0.36 0.27 0.32 0.35 0.41 0.40 0.37 0.36 0.42 0.51 0.61 0.67 0.70 0.65 0.72 0.72 0.68 0.71 0.88 0.94 0.73 0.54 0.51 0.42 0.44 0.46 0.38 0.35 0.30 0.30 0.29 0.25 0.21 0.15 0.12 0.13 0.14 0.12 0.11 0.07 0.06 0.09 0.16 0.19 0.25 0.25 0.15 0.10 0.11 0.15 0.28 0.42 0.45 0.40 0.33 0.40 0.40 0.42 0.51 0.87 1.05 1.16 1.39 2.08 2.24 2.16 1.67 1.90 2.16 2.41 2.73 2.80
0.27 0.28 0.31 0.33 0.35 0.41 0.48 0.51 0.52 0.50 0.47 0.52 0.57 0.63 0.71 0.74 0.71 0.65 0.66 0.67 0.71 0.86 0.77 0.64 0.64 0.52 0.44 0.42 0.42 0.42 0.38 0.37 0.31 0.29 0.26 0.23 0.18 0.13 0.12 0.19 0.15 0.10 0.07 0.09 0.08 0.13 0.14 0.16 0.22 0.17 0.11 0.13 0.17 0.31 0.33 0.50 0.52 0.36 0.42 0.51 0.44 0.59 0.87 0.99 1.00 1.28 1.89 2.11 2.20 1.71 1.82 2.02 2.13 2.31
0.28 0.30 0.33 0.34 0.36 0.40 0.48 0.54 0.54 0.60 0.60 0.65 0.77 0.70 0.60 0.62 0.70 0.72 0.66 0.64 0.68 0.73 0.69 0.76 0.66 0.52 0.50 0.50 0.45 0.49 0.59 0.66 0.53 0.37 0.31 0.27 0.20 0.18 0.12 0.11 0.17 0.22 0.23 0.14 0.10 0.10 0.12 0.14 0.15 0.15 0.14 0.13 0.15 0.22 0.36 0.35 0.39 0.36 0.38 0.45 0.47 0.48 0.63 0.77 0.88 0.99 1.23 1.66 1.93 2.02 1.85 1.89 1.95 2.01
0.26 0.25 0.30 0.37 0.40 0.41 0.41 0.43 0.44 0.50 0.63 0.76 0.92 0.64 0.63 0.75 0.81 0.78 0.71 0.67 0.61 0.63 0.62 0.62 0.65 0.71 0.66 0.60 0.62 0.67 0.72 0.67 0.50 0.36 0.33 0.29 0.21 0.17 0.16 0.14 0.12 0.16 0.20 0.21 0.23 0.18 0.17 0.16 0.17 0.18 0.17 0.14 0.14 0.15 0.27 0.37 0.45 0.40 0.49 0.43 0.43 0.46 0.54 0.58 0.71 0.79 0.98 1.14 1.45 1.71 2.04 2.22 2.00 2.06
0.28 0.24 0.25 0.29 0.34 0.37 0.36 0.38 0.42 0.47 0.51 0.68 0.67 0.71 0.92 0.92 0.95 0.89 0.85 0.83 0.74 0.67 0.68 0.54 0.67 0.68 0.63 0.57 0.59 0.58 0.49 0.54 0.49 0.48 0.49 0.44 0.36 0.32 0.27 0.22 0.20 0.19 0.22 0.24 0.26 0.21 0.18 0.17 0.18 0.20 0.18 0.17 0.13 0.14 0.19 0.31 0.42 0.40 0.43 0.59 0.71 0.55 0.45 0.51 0.51 0.68 0.76 0.98 1.05 1.35 1.61 2.01 2.35 2.16
0.30 0.29 0.26 0.24 0.26 0.27 0.25 0.28 0.31 0.36 0.53 0.58 0.50 0.54 0.66 0.77 0.99 1.13 0.96 0.78 0.82 0.86 0.80 0.78 0.95 0.98 0.84 0.77 0.60 0.62 0.66 0.64 0.75 0.56 0.51 0.52 0.60 0.57 0.49 0.42 0.29 0.23 0.23 0.24 0.24 0.23 0.20 0.20 0.20 0.18 0.17 0.29 0.29 0.14 0.12 0.17 0.43 0.41 0.41 0.52 0.57 0.65 0.61 0.52 0.60 0.55 0.65 0.75 0.91 1.04 1.23 1.50 1.79 2.22
0.38 0.35 0.37 0.30 0.32 0.30 0.26 0.25 0.30 0.40 0.50 0.42 0.42 0.47 0.59 0.69 0.77 0.82 1.04 0.96 0.80 0.78 0.84 0.85 0.92 1.08 1.05 0.88 0.74 0.84 0.94 0.82 0.86 0.83 0.86 0.72 0.71 0.70 0.58 0.38 0.30 0.25 0.22 0.26 0.29 0.25 0.22 0.20 0.23 0.22 0.17 0.15 0.15 0.15 0.16 0.14 0.19 0.30 0.40 0.41 0.49 0.54 0.58 0.55 0.68 0.69 0.61 0.69 0.86 0.89 1.01 1.19 1.44 1.75
0.29 0.27 0.26 0.27 0.26 0.28 0.26 0.31 0.40 0.57 0.46 0.34 0.34 0.39 0.53 0.58 0.65 0.77 0.90 0.86 0.77 0.79 0.83 0.78 0.70 0.76 0.93 0.88 0.81 0.95 0.95 0.95 0.93 0.83 0.85 0.80 0.70 0.67 0.67 0.53 0.38 0.30 0.28 0.36 0.41 0.36 0.26 0.24 0.25 0.25 0.22 0.19 0.15 0.16 0.18 0.18 0.21 0.26 0.39 0.48 0.46 0.50 0.49 0.48 0.51 0.61 0.63 0.76 0.85 0.90 0.88 1.01 1.25 1.38
0.24 0.26 0.32 0.31 0.30 0.29 0.28 0.34 0.57 0.61 0.43 0.32 0.32 0.41 0.54 0.55 0.50 0.53 0.63 0.81 0.91 0.81 0.84 0.77 0.71 0.64 0.73 0.77 0.77 0.83 0.91 0.98 1.06 0.85 0.79 0.68 0.75 0.82 0.87 0.64 0.61 0.59 0.57 0.61 0.55 0.45 0.31 0.25 0.23 0.22 0.19 0.18 0.19 0.18 0.20 0.20 0.22 0.28 0.36 0.45 0.53 0.52 0.52 0.49 0.52 0.60 0.60 0.64 0.72 0.93 0.96 1.00 1.11 1.33
0.25 0.21 0.22 0.26 0.28 0.33 0.28 0.35 0.52 0.65 0.62 0.48 0.42 0.46 0.50 0.51 0.49 0.48 0.53 0.61 0.67 0.81 0.91 0.83 0.74 0.65 0.62 0.67 0.65 0.72 0.80 0.90 0.98 1.01 0.84 0.73 0.73 0.88 1.07 0.88 0.74 0.74 0.71 0.66 0.71 0.74 0.39 0.27 0.22 0.19 0.16 0.16 0.16 0.17 0.20 0.20 0.24 0.28 0.31 0.41 0.51 0.56 0.55 0.57 0.56 0.55 0.59 0.68 0.70 0.68 0.78 1.00 1.03 1.26
0.27 0.22 0.22 0.25 0.26 0.32 0.27 0.33 0.42 0.48 0.47 0.38 0.44 0.47 0.46 0.50 0.50 0.50 0.51 0.54 0.62 0.74 0.86 0.88 0.85 0.87 0.77 0.77 0.80 0.81 0.82 0.90 0.93 0.93 0.83 0.84 0.91 0.93 0.97 0.83 0.65 0.61 0.68 0.65 0.68 0.55 0.45 0.33 0.25 0.20 0.17 0.17 0.18 0.16 0.15 0.15 0.19 0.23 0.27 0.31 0.39 0.51 0.54 0.56 0.59 0.60 0.62 0.63 0.68 0.64 0.72 0.89 1.05 1.11
0.38 0.54 0.38 0.38 0.47 0.45 0.35 0.37 0.46 0.51 0.47 0.39 0.40 0.41 0.42 0.43 0.45 0.47 0.45 0.50 0.67 0.73 0.70 0.72 0.73 0.73 0.77 0.77 0.77 0.78 0.75 0.81 0.94 1.06 1.09 0.88 0.64 0.73 0.80 0.64 0.59 0.53 0.59 0.70 0.64 0.52 0.41 0.31 0.28 0.30 0.26 0.21 0.18 0.18 0.17 0.15 0.17 0.18 0.23 0.24 0.28 0.36 0.44 0.50 0.52 0.57 0.60 0.61 0.68 0.71 0.71 0.80 0.85 1.03
0.32 0.29 0.27 0.38 0.53 0.51 0.45 0.39 0.47 0.48 0.63 0.49 0.45 0.41 0.38 0.39 0.39 0.35 0.37 0.44 0.51 0.65 0.78 0.93 0.90 0.96 1.01 1.00 0.89 0.92 1.02 1.02 1.15 1.17 1.09 0.81 0.76 0.85 0.72 0.64 0.51 0.50 0.58 0.71 0.68 0.72 0.48 0.39 0.35 0.34 0.33 0.33 0.28 0.22 0.19 0.17 0.16 0.17 0.22 0.22 0.24 0.25 0.32 0.40 0.46 0.49 0.52 0.58 0.60 0.66 0.74 0.75 0.84 0.99
0.33 0.31 0.27 0.28 0.40 0.44 0.41 0.40 0.46 0.48 0.55 0.48 0.45 0.45 0.43 0.42 0.38 0.34 0.33 0.39 0.47 0.53 0.59 0.67 0.83 0.88 0.90 1.03 0.93 0.87 0.85 0.91 0.98 1.21 1.12 0.82 0.83 0.91 0.76 0.78 0.80 0.81 0.70 0.67 0.84 0.84 0.52 0.55 0.53 0.42 0.50 0.51 0.32 0.23 0.22 0.21 0.22 0.20 0.21 0.24 0.28 0.25 0.26 0.29 0.32 0.42 0.48 0.61 0.53 0.60 0.65 0.73 0.82 1.02
0.28 0.24 0.26 0.25 0.41 0.42 0.41 0.47 0.54 0.64 0.86 0.68 0.53 0.42 0.44 0.48 0.44 0.35 0.33 0.33 0.40 0.47 0.49 0.53 0.61 0.65 0.70 0.92 0.93 0.80 0.75 0.84 0.90 0.98 0.85 0.75 0.78 0.80 0.74 0.82 0.87 0.85 0.63 0.57 0.88 0.86 0.54 0.76 0.75 0.88 0.63 0.50 0.44 0.33 0.25 0.27 0.22 0.23 0.20 0.22 0.28 0.26 0.28 0.27 0.27 0.29 0.39 0.46 0.59 0.65 0.62 0.64 0.80 0.91
0.28 0.27 0.27 0.29 0.35 0.41 0.45 0.51 0.69 0.71 0.77 0.71 0.69 0.75 0.63 0.49 0.39 0.28 0.25 0.27 0.32 0.37 0.39 0.40 0.45 0.49 0.60 0.75 0.84 0.78 0.82 0.81 0.82 0.83 0.76 0.78 0.77 0.80 0.72 0.68 0.63 0.61 0.56 0.54 0.63 0.68 0.70 0.74 0.80 0.91 0.93 0.87 0.50 0.54 0.44 0.28 0.29 0.27 0.25 0.23 0.25 0.24 0.29 0.29 0.28 0.32 0.32 0.41 0.49 0.67 0.69 0.72 0.78 0.84
0.28 0.26 0.26 0.26 0.29 0.35 0.44 0.48 0.54 0.70 0.71 0.72 0.64 0.55 0.77 0.68 0.56 0.32 0.25 0.24 0.29 0.34 0.36 0.36 0.38 0.39 0.45 0.57 0.66 0.62 0.65 0.72 0.73 0.75 0.71 0.68 0.73 0.78 0.80 0.76 0.74 0.64 0.57 0.46 0.55 0.66 0.62 0.70 0.62 0.75 0.70 0.79 0.56 0.51 0.46 0.51 0.35 0.33 0.33 0.30 0.26 0.25 0.26 0.29 0.28 0.29 0.32 0.33 0.40 0.51 0.66 0.74 0.85 0.96
0.25 0.24 0.26 0.25 0.25 0.29 0.31 0.43 0.48 0.64 0.80 0.79 0.83 0.86 0.61 0.57 0.60 0.62 0.56 0.54 0.43 0.33 0.30 0.31 0.35 0.31 0.30 0.40 0.54 0.51 0.51 0.57 0.64 0.70 0.73 0.65 0.75 1.01 0.79 0.74 0.83 0.81 0.78 0.69 0.71 0.77 0.82 0.78 0.65 0.88 0.69 0.58 0.62 0.67 0.56 0.55 0.53 0.55 0.40 0.37 0.37 0.32 0.39 0.31 0.30 0.29 0.25 0.29 0.30 0.46 0.59 0.64 0.73 0.89
0.28 0.33 0.31 0.28 0.27 0.32 0.37 0.42 0.45 0.55 0.65 0.57 0.66 0.67 0.55 0.54 0.57 0.52 0.55 0.48 0.43 0.41 0.36 0.32 0.31 0.29 0.28 0.28 0.33 0.42 0.45 0.57 0.66 0.62 0.57 0.60 0.77 0.71 0.73 0.82 0.67 0.66 0.67 0.70 0.67 0.72 0.77 0.74 0.62 0.57 0.64 0.69 0.68 0.67 0.58 0.50 0.52 0.63 0.54 0.42 0.40 0.37 0.36 0.30 0.31 0.34 0.35 0.31 0.33 0.39 0.45 0.60 0.66 0.70
0.22 0.26 0.26 0.27 0.28 0.32 0.30 0.30 0.39 0.53 0.57 0.57 0.46 0.42 0.48 0.43 0.44 0.55 0.55 0.48 0.40 0.41 0.38 0.30 0.23 0.21 0.20 0.22 0.24 0.29 0.45 0.48 0.68 0.79 0.72 0.73 0.64 0.59 0.65 0.74 0.69 0.63 0.76 0.74 0.83 0.87 0.74 0.68 0.64 0.59 0.63 0.52 0.61 0.54 0.55 0.57 0.65 0.59 0.52 0.66 0.64 0.42 0.36 0.33 0.34 0.32 0.37 0.45 0.39 0.45 0.46 0.55 0.64 0.68
0.20 0.23 0.25 0.25 0.29 0.31 0.33 0.32 0.43 0.46 0.39 0.40 0.41 0.43 0.43 0.47 0.55 0.58 0.47 0.41 0.43 0.40 0.28 0.21 0.19 0.19 0.18 0.20 0.21 0.24 0.39 0.58 0.73 0.70 0.68 0.61 0.54 0.59 0.63 0.67 0.67 0.67 0.67 0.70 0.78 0.94 0.80 0.75 0.72 0.70 0.65 0.62 0.56 0.51 0.50 0.59 0.72 0.63 0.80 0.65 0.57 0.69 0.71 0.53 0.47 0.38 0.41 0.42 0.49 0.47 0.45 0.44 0.56 0.76
0.31 0.28 0.30 0.37 0.42 0.40 0.39 0.41 0.33 0.25 0.29 0.33 0.39 0.39 0.40 0.46 0.47 0.50 0.44 0.37 0.33 0.32 0.29 0.24 0.19 0.17 0.17 0.20 0.27 0.31 0.38 0.56 0.54 0.55 0.63 0.65 0.58 0.54 0.54 0.62 0.63 0.63 0.68 0.66 0.74 0.78 0.82 0.79 0.78 0.82 0.79 0.70 0.68 0.58 0.50 0.60 0.68 0.70 0.79 0.69 0.70 0.86 0.82 0.63 0.51 0.44 0.49 0.57 0.52 0.55 0.47 0.46 0.45 0.61
0.35 0.33 0.39 0.39 0.36 0.38 0.39 0.36 0.35 0.36 0.29 0.22 0.24 0.35 0.49 0.53 0.50 0.34 0.35 0.27 0.31 0.26 0.24 0.20 0.19 0.22 0.23 0.29 0.28 0.31 0.32 0.34 0.39 0.43 0.52 0.66 0.67 0.64 0.60 0.63 0.67 0.61 0.62 0.61 0.62 0.65 0.70 0.79 0.85 0.99 0.86 0.66 0.80 0.75 0.66 0.72 0.72 0.64 0.72 0.83 0.75 0.65 0.77 0.99 0.79 0.69 0.60 0.54 0.50 0.51 0.49 0.46 0.44 0.51
0.33 0.35 0.33 0.34 0.34 0.32 0.37 0.36 0.33 0.32 0.34 0.32 0.24 0.24 0.37 0.43 0.45 0.47 0.29 0.30 0.27 0.25 0.29 0.27 0.23 0.22 0.24 0.24 0.25 0.28 0.38 0.31 0.31 0.37 0.43 0.52 0.64 0.73 0.69 0.70 0.59 0.58 0.59 0.63 0.70 0.68 0.71 0.74 0.75 1.05 1.03 0.75 0.79 0.81 0.84 0.87 0.82 0.72 0.73 0.82 0.82 0.76 0.68 0.67 0.69 0.66 0.65 0.69 0.60 0.50 0.50 0.47 0.42 0.46
0.32 0.35 0.36 0.35 0.34 0.28 0.25 0.24 0.24 0.25 0.28 0.30 0.28 0.26 0.32 0.41 0.46 0.50 0.38 0.32 0.31 0.27 0.30 0.36 0.26 0.28 0.31 0.35 0.28 0.32 0.25 0.23 0.22 0.28 0.45 0.53 0.58 0.66 0.79 0.75 0.61 0.51 0.51 0.54 0.57 0.66 0.73 0.73 0.66 0.70 0.83 0.87 0.80 0.84 0.90 0.95 0.90 0.82 0.87 0.90 0.88 0.78 0.67 0.61 0.59 0.59 0.62 0.60 0.62 0.68 0.63 0.58 0.50 0.48
0.28 0.30 0.28 0.32 0.34 0.29 0.24 0.25 0.26 0.27 0.32 0.29 0.28 0.29 0.31 0.33 0.42 0.46 0.37 0.39 0.40 0.43 0.36 0.32 0.31 0.25 0.26 0.29 0.35 0.26 0.22 0.20 0.21 0.24 0.26 0.34 0.57 0.71 0.67 0.65 0.53 0.48 0.52 0.52 0.52 0.56 0.66 0.78 0.83 0.91 0.91 0.95 1.01 1.08 0.97 0.99 0.89 0.89 0.85 0.85 0.78 0.74 0.71 0.71 0.61 0.58 0.60 0.63 0.64 0.63 0.60 0.53 0.52 0.50
0.25 0.25 0.25 0.25 0.30 0.33 0.33 0.29 0.30 0.33 0.33 0.31 0.31 0.30 0.29 0.28 0.30 0.35 0.34 0.41 0.30 0.34 0.44 0.33 0.32 0.34 0.32 0.29 0.31 0.31 0.27 0.23 0.25 0.27 0.28 0.30 0.40 0.49 0.53 0.54 0.49 0.43 0.43 0.48 0.50 0.55 0.61 0.67 0.78 0.91 1.00 1.09 1.01 1.07 1.04 1.00 0.93 0.90 0.84 0.78 0.72 0.72 0.70 0.74 0.73 0.75 0.77 0.71 0.67 0.58 0.60 0.61 0.53 0.50
0.22 0.23 0.24 0.24 0.24 0.28 0.29 0.34 0.37 0.37 0.38 0.38 0.34 0.32 0.32 0.30 0.29 0.30 0.28 0.29 0.29 0.28 0.30 0.28 0.26 0.28 0.30 0.28 0.27 0.29 0.31 0.33 0.34 0.30 0.29 0.28 0.28 0.34 0.42 0.45 0.39 0.39 0.43 0.42 0.45 0.53 0.66 0.67 0.73 0.83 0.89 0.91 0.87 0.87 0.85 0.76 0.73 0.75 0.84 0.72 0.73 0.75 0.74 0.76 0.80 0.77 0.77 0.74 0.71 0.59 0.45 0.38 0.42 0.45
0.20 0.21 0.23 0.25 0.25 0.26 0.30 0.31 0.34 0.36 0.38 0.36 0.37 0.39 0.37 0.30 0.26 0.25 0.26 0.32 0.36 0.32 0.26 0.23 0.22 0.23 0.26 0.24 0.28 0.29 0.31 0.32 0.32 0.34 0.31 0.31 0.34 0.37 0.37 0.40 0.40 0.34 0.33 0.37 0.45 0.45 0.56 0.60 0.68 0.75 0.87 0.96 0.85 0.68 0.58 0.54 0.56 0.60 0.63 0.72 0.77 0.83 0.79 0.74 0.74 0.76 0.79 0.78 0.74 0.66 0.53 0.47 0.44 0.46
0.21 0.21 0.24 0.25 0.27 0.26 0.29 0.34 0.33 0.32 0.33 0.33 0.34 0.36 0.33 0.27 0.24 0.22 0.23 0.28 0.29 0.28 0.25 0.25 0.23 0.23 0.26 0.24 0.24 0.24 0.28 0.31 0.34 0.33 0.28 0.29 0.28 0.29 0.33 0.35 0.36 0.38 0.39 0.40 0.41 0.48 0.55 0.60 0.63 0.67 0.71 0.75 0.76 0.71 0.65 0.57 0.56 0.62 0.68 0.71 0.71 0.70 0.79 0.82 0.74 0.67 0.81 0.88 0.81 0.84 0.97 0.95 0.69 0.71
0.23 0.22 0.22 0.23 0.24 0.25 0.26 0.29 0.32 0.30 0.30 0.32 0.31 0.30 0.30 0.27 0.25 0.26 0.26 0.26 0.26 0.24 0.24 0.26 0.26 0.25 0.28 0.29 0.26 0.26 0.25 0.27 0.26 0.24 0.23 0.25 0.27 0.27 0.27 0.26 0.26 0.31 0.43 0.45 0.46 0.46 0.49 0.52 0.51 0.56 0.56 0.56 0.59 0.64 0.64 0.60 0.63 0.68 0.70 0.75 0.69 0.69 0.82 0.83 0.77 0.75 0.70 0.70 0.78 0.93 0.90 0.80 0.92 0.86
0.23 0.22 0.22 0.22 0.24 0.25 0.25 0.26 0.30 0.30 0.28 0.27 0.27 0.25 0.25 0.25 0.24 0.27 0.28 0.28 0.28 0.27 0.26 0.25 0.27 0.28 0.28 0.30 0.29 0.30 0.27 0.25 0.24 0.23 0.22 0.22 0.24 0.26 0.26 0.27 0.33 0.29 0.35 0.42 0.39 0.41 0.39 0.32 0.34 0.38 0.48 0.57 0.54 0.60 0.81 0.80 0.78 0.78 0.80 0.77 0.71 0.72 0.74 0.81 0.85 0.85 0.82 0.75 0.71 0.77 0.81 0.91 0.86 0.79
0.23 0.22 0.21 0.21 0.22 0.24 0.25 0.25 0.26 0.28 0.27 0.25 0.25 0.25 0.24 0.24 0.24 0.25 0.24 0.24 0.24 0.25 0.25 0.25 0.25 0.25 0.26 0.26 0.25 0.25 0.26 0.25 0.25 0.26 0.24 0.26 0.26 0.25 0.25 0.32 0.37 0.36 0.33 0.31 0.27 0.25 0.23 0.26 0.33 0.37 0.51 0.77 0.74 0.86 0.90 0.74 0.67 0.65 0.67 0.67 0.68 0.71 0.77 0.78 0.76 0.83 0.97 0.95 0.85 0.80 0.85 0.92 0.84 0.84
0.22 0.21 0.21 0.21 0.21 0.22 0.24 0.24 0.24 0.26 0.25 0.25 0.25 0.27 0.26 0.26 0.25 0.25 0.24 0.24 0.25 0.26 0.26 0.25 0.25 0.26 0.27 0.26 0.25 0.27 0.27 0.26 0.28 0.28 0.26 0.26 0.28 0.30 0.29 0.25 0.23 0.26 0.26 0.22 0.20 0.25 0.25 0.30 0.34 0.49 0.52 0.61 0.67 0.67 0.66 0.55 0.51 0.52 0.56 0.58 0.62 0.69 0.80 0.81 0.81 0.83 0.86 0.83 0.76 0.80 0.96 1.02 0.89 0.87
0.23 0.21 0.21 0.21 0.21 0.21 0.22 0.22 0.23 0.24 0.25 0.26 0.27 0.28 0.29 0.28 0.28 0.28 0.28 0.29 0.31 0.32 0.31 0.30 0.28 0.29 0.30 0.30 0.28 0.29 0.29 0.29 0.30 0.31 0.29 0.26 0.26 0.27 0.27 0.25 0.24 0.24 0.28 0.29 0.31 0.34 0.30 0.34 0.50 0.42 0.50 0.52 0.43 0.49 0.52 0.51 0.54 0.50 0.56 0.60 0.69 0.64 0.72 0.88 0.90 0.86 0.87 0.86 0.85 0.75 0.77 0.73 0.70 0.64
0.24 0.23 0.21 0.20 0.19 0.19 0.20 0.20 0.22 0.24 0.25 0.27 0.27 0.27 0.27 0.25 0.26 0.27 0.26 0.27 0.29 0.30 0.30 0.31 0.31 0.32 0.33 0.35 0.34 0.32 0.31 0.30 0.30 0.29 0.30 0.29 0.27 0.28 0.28 0.28 0.30 0.30 0.30 0.29 0.29 0.29 0.30 0.32 0.35 0.37 0.40 0.38 0.36 0.35 0.34 0.37 0.42 0.50 0.52 0.58 0.63 0.60 0.61 0.77 0.95 0.94 0.97 1.03 0.90 0.80 0.77 0.72 0.60 0.54